Location: Heilwood
(40.6210°N, 78.9150°W)
Time: 00:03:17
(UTC-05:00)

BREEZE-M DEB (TANK) - Visible Passes

Search period start: 24 January 2017 00:00
Search period end: 03 February 2017 00:00
Orbit: 306 x 15862 km, 49.5° (Epoch: 23 January)

Date Brightness Start Highest point End Pass type
(mag) Time Alt. Az. Time Alt. Az. Time Alt. Az.
24 Jan 7.9 01:18:13 19° SSE 01:18:13 19° SSE 01:29:13 10° SSE visible
25 Jan 7.9 01:21:05 19° SSE 01:21:05 19° SSE 01:32:00 10° SSE visible
26 Jan 8.0 01:23:55 19° SSE 01:23:55 19° SSE 01:34:41 10° SSE visible
27 Jan 8.0 01:26:44 18° SSE 01:26:44 18° SSE 01:37:15 10° SSE visible
28 Jan 8.0 01:29:33 18° SSE 01:29:33 18° SSE 01:39:43 10° SSE visible
29 Jan 8.1 01:32:19 17° SSE 01:32:19 17° SSE 01:42:04 10° SSE visible
30 Jan 8.1 01:35:04 17° S 01:35:04 17° S 01:44:17 10° SSE visible
31 Jan 8.1 01:37:48 16° S 01:37:48 16° S 01:46:23 10° SSE visible
01 Feb 8.2 01:40:30 15° S 01:40:30 15° S 01:48:22 10° S visible
02 Feb 8.2 01:43:10 15° S 01:43:10 15° S 01:50:12 10° S visible
